Regional Weather Roundup
Issued by NWS Newport/Morehead, NC

Current Version | Previous Version | Text Only | Print | Product List | Glossary On
Versions: 1 2 3 4 5 6 7 8 9 10 11 12 13 14 15 16 17 18 19 20 21 22 23 24 25 26 27 28 29 30 31 32 33 34 35 36 37 38 39 40 41 42 43 44 45 46 47 48 49 50
000
ASUS42 KMHX 100624
RWRMHX
WEATHER ROUNDUP FOR EASTERN NORTH CAROLINA
NATIONAL WEATHER SERVICE NEWPORT/MOREHEAD CITY NC
100 AM EST SAT DEC 10 2016

NOTE: "FAIR" INDICATES FEW OR NO CLOUDS BELOW 12,000 FEET
WITH NO SIGNIFICANT WEATHER AND/OR OBSTRUCTIONS TO VISIBILITY

NCZ015>017-031-032-045>047-102-103-100700-
NORTH COAST

CITY           SKY/WX    TMP DP  RH WIND       PRES   REMARKS
EDENTON        NOT AVBL
ELIZABETH CITY CLEAR     27  18  69 W6        30.45R
KITTY HAWK     CLEAR     35  26  68 NW6       30.42R
MANTEO         CLEAR     36  20  53 N12       30.44R

$$

NCZ045>047-081-094-103-104-100700-
CENTRAL COAST

CITY           SKY/WX    TMP DP  RH WIND       PRES   REMARKS
FRISCO         CLEAR     38  19  46 VRB7      30.42S

$$

NCZ095-097-098-100-101-100700-
SOUTHERN COAST

CITY           SKY/WX    TMP DP  RH WIND       PRES   REMARKS
BEAUFORT       CLEAR     35  25  66 N7        30.46R
CEDAR ISLAND   NOT AVBL
JACKSONVILLE   PTCLDY    28  21  75 NW7       30.47S
PINEY ISLAND   CLEAR    N/A N/A N/A NW8       30.45S
WILMINGTON     CLEAR     29  21  72 N7        30.48S


$$

NCZ011>013-027>030-043-044-078>080-089-090>093-098-100700-
COASTAL PLAIN

CITY           SKY/WX    TMP DP  RH WIND       PRES   REMARKS
AHOSKIE        CLEAR     26  19  73 CALM      30.48S
CLINTON        CLEAR     27  25  91 CALM      30.51R
ELIZABETHTOWN  CLEAR     29  23  78 CALM      30.49S
GOLDSBORO      CLEAR     29  17  61 NW3       30.47S
GREENVILLE     CLEAR     30  19  64 NW3       30.48R
HAVELOCK       CLEAR     30  21  69 NW6       30.47S
KENANSVILLE    CLEAR     25  21  86 W3        30.49S
KINSTON        CLEAR     28  20  71 CALM      30.49S
NEW BERN       CLEAR     28  22  78 W3        30.48S
RICHLANDS      CLEAR     22  19  89 CALM      30.48S
ROCKY MOUNT    CLEAR     26  17  68 CALM      30.49R
WASHINGTON     CLEAR     28  19  69 NW5       30.48R
WHITEVILLE     CLEAR     29  25  85 CALM      30.48S

$$

AMZ130-135-150-152-154-156-158-170-250-252-270-ANZ085-086-088-633-658-670-100700-
MARINE OBSERVATIONS

STATION/POSITION TIME  TEMP    WIND        PRES    WAVE   SWELL
                       AIR SEA DIR/SP/G            HT/PER HT/PER
                 (UTC) (F)     (DEG/KT/KT) (MB)    (FT/S) (FT/S)
CHESAPEAKE LIGHT NOT AVBL
64 E VA BEACH    0550   41 58  330/ 17/ 23 1028.3    6/ 6   2/14
DUCK             0600   36 53  310/ 12/ 13 1030.0
2 E DUCK         NOT AVBL
OREGON INLET     0600   37 52  310/ 11/ 16 1030.0
13E OREGON INLT  NOT AVBL
HATTERAS CG      0600   40 53  330/ 15/ 19 1029.8
DIAMOND BUOY     0550   42 77   10/ 14/ 21 1029.6    5/ 9   3/ 9
CAPE LOOKOUT     0600   38     340/ 12/ 13 1031.0
BEAUFORT LAB     0600   35 50  320/  4/  6 1030.4
30 SE NEW RVR IN 0608   42 69  360/ 12/ 17 1031.1
30 SE NEW RVR IN 0613      69                N/A     3/ 4
27 SE WRIGHTSVLE 0608   43 69   10/ 14/ 21 1030.7
5 SE WRIGHTSVLE  0608   38 60   20/ 16/ 23 1031.1
225 S CAPE HAT   0550   58 73   10/ 12/ 16 1026.6    6/ 8   5/ 8
41 SE CHARLESTON 0550   50 73   20/ 14/ 19 1029.6    4/ 5   2/ 8

$$



USA.gov is the U.S. government's official web portal to all federal, state and local government web resources and services.